This is the latest recevied weather packets stored in our database for station/object NW5W-12. If no packets are shown the sender has not sent any weather packets the latest 10 day(s).
| Time | Temp. | Humidity | Pressure | Rain* | Wind** | Luminosity | Snow |
|---|---|---|---|---|---|---|---|
| 1788109740 | 17.22° C | 75% | 1020.6 hPa | 1.02 mm | - | - | - |
| 1788109440 | 17.22° C | 74% | 1020.5 hPa | 1.02 mm | - | - | - |
| 1788109140 | 17.22° C | 74% | 1020.5 hPa | 1.02 mm | - | - | - |
| 1788108840 | 17.22° C | 75% | 1020.6 hPa | 1.02 mm | - | - | - |
| 1788108540 | 16.67° C | 77% | 1020.6 hPa | 1.02 mm | - | - | - |
| 1788108239 | 17.22° C | 73% | 1020.6 hPa | 1.02 mm | - | - | - |
| 1788107940 | 16.67° C | 73% | 1020.5 hPa | 1.02 mm | - | - | - |
| 1788107640 | 16.67° C | 75% | 1020.5 hPa | 1.02 mm | - | - | - |
| 1788107340 | 16.11° C | 74% | 1020.4 hPa | 1.02 mm | - | - | - |
| 1788107040 | 16.11° C | 76% | 1020.4 hPa | 1.02 mm | - | - | - |
| 1788106739 | 16.11° C | 77% | 1020.4 hPa | 1.02 mm | - | - | - |
| 1788106439 | 16.11° C | 77% | 1020.5 hPa | 1.02 mm | - | - | - |
| 1788106140 | 16.11° C | 75% | 1020.4 hPa | 1.02 mm | - | - | - |
| 1788105840 | 16.11° C | 75% | 1020.3 hPa | 1.02 mm | - | - | - |
| 1788105540 | 16.11° C | 78% | 1020.3 hPa | 1.02 mm | - | - | - |
| 1788105239 | 16.11° C | 78% | 1020.3 hPa | 1.02 mm | - | - | - |
| 1788104940 | 16.11° C | 78% | 1020.3 hPa | 1.02 mm | - | - | - |
| 1788104639 | 15.56° C | 77% | 1020.3 hPa | 1.02 mm | - | - | - |
| 1788104340 | 16.11° C | 76% | 1020.3 hPa | 1.02 mm | - | - | - |
| 1788104040 | 16.11° C | 77% | 1020.3 hPa | 1.02 mm | - | - | - |
| 1788103740 | 16.11° C | 78% | 1020.2 hPa | 1.02 mm | - | - | - |
| 1788103440 | 15.56° C | 82% | 1020.2 hPa | 1.02 mm | - | - | - |
| 1788103139 | 15.56° C | 82% | 1020.2 hPa | 1.02 mm | - | - | - |
| 1788102840 | 15.56° C | 80% | 1020.3 hPa | 1.02 mm | - | - | - |
| 1788102540 | 15.56° C | 75% | 1020.3 hPa | 1.02 mm | - | - | - |
* Rain since midnight (hover to see other rain measurements)
** Current wind speed in m/s (hover to see current wind gust speed)